Time,TemperatureF,DewpointF,PressureIn,WindDirection,WindDirectionDegrees,WindSpeedMPH,WindSpeedGustMPH,Humidity,HourlyPrecipIn,Conditions,Clouds,dailyrainin,SoftwareType,DateUTC
2013-07-22 00:01:00,74.3,70.2,29.88,NE,45,5.6,5.6,87,0.00,,,0.00,WUHU21623XXSP,2013-07-22 05:01:00,
2013-07-22 00:06:00,73.0,69.0,29.88,NE,45,0.0,5.6,87,0.00,,,0.00,WUHU21623XXSP,2013-07-22 05:06:00,
2013-07-22 00:11:00,72.7,68.6,29.87,NE,45,0.0,1.8,87,0.00,,,0.00,WUHU21623XXSP,2013-07-22 05:11:00,
2013-07-22 00:16:00,72.3,68.2,29.87,NE,45,3.6,3.6,87,0.00,,,0.00,WUHU21623XXSP,2013-07-22 05:16:00,
2013-07-22 00:21:00,72.1,68.1,29.87,NE,45,0.0,3.6,87,0.00,,,0.00,WUHU21623XXSP,2013-07-22 05:21:00,
2013-07-22 00:26:00,71.8,67.7,29.86,NE,45,0.0,3.6,87,0.00,,,0.00,WUHU21623XXSP,2013-07-22 05:26:00,
2013-07-22 00:31:00,71.6,67.7,29.87,NE,45,5.4,5.4,87,0.00,,,0.00,WUHU21623XXSP,2013-07-22 05:31:00,
2013-07-22 00:36:00,71.4,67.3,29.87,NE,45,0.0,5.4,87,0.00,,,0.00,WUHU21623XXSP,2013-07-22 05:36:00,
2013-07-22 00:41:00,71.4,67.3,29.87,NE,45,0.0,0.0,87,0.00,,,0.00,WUHU21623XXSP,2013-07-22 05:41:00,
2013-07-22 00:46:00,71.4,67.3,29.87,NE,45,0.0,0.0,87,0.00,,,0.00,WUHU21623XXSP,2013-07-22 05:46:00,
2013-07-22 00:51:00,71.4,67.3,29.88,NNE,22,0.0,0.0,87,0.00,,,0.00,WUHU21623XXSP,2013-07-22 05:51:00,
2013-07-22 00:56:00,71.4,67.3,29.87,NNE,22,0.0,0.0,87,0.00,,,0.00,WUHU21623XXSP,2013-07-22 05:56:00,
2013-07-22 01:01:00,71.4,67.3,29.88,NNE,22,0.0,0.0,87,0.00,,,0.00,WUHU21623XXSP,2013-07-22 06:01:00,
2013-07-22 01:06:00,71.4,67.3,29.88,NE,45,0.0,0.0,87,0.00,,,0.00,WUHU21623XXSP,2013-07-22 06:06:00,
2013-07-22 01:12:00,71.4,67.3,29.87,NE,45,0.0,0.0,87,0.00,,,0.00,WUHU21623XXSP,2013-07-22 06:12:00,
2013-07-22 01:17:00,71.2,67.2,29.88,ENE,67,7.2,7.2,87,0.00,,,0.00,WUHU21623XXSP,2013-07-22 06:17:00,
2013-07-22 01:22:00,71.2,67.2,29.88,ENE,67,0.0,7.2,87,0.00,,,0.00,WUHU21623XXSP,2013-07-22 06:22:00,
2013-07-22 01:27:00,71.2,66.8,29.87,ENE,67,0.0,7.2,86,0.00,,,0.00,WUHU21623XXSP,2013-07-22 06:27:00,
2013-07-22 01:32:00,71.1,66.6,29.87,ENE,67,0.0,0.0,86,0.00,,,0.00,WUHU21623XXSP,2013-07-22 06:32:00,
2013-07-22 01:37:00,70.9,66.5,29.87,ENE,67,0.0,0.0,86,0.00,,,0.00,WUHU21623XXSP,2013-07-22 06:37:00,
2013-07-22 01:42:00,70.9,66.5,29.87,ENE,67,0.0,0.0,86,0.00,,,0.00,WUHU21623XXSP,2013-07-22 06:42:00,
2013-07-22 01:47:00,70.9,66.5,29.86,ENE,67,0.0,0.0,86,0.00,,,0.00,WUHU21623XXSP,2013-07-22 06:47:00,
2013-07-22 01:52:00,70.9,66.5,29.86,ESE,112,0.0,0.0,86,0.00,,,0.00,WUHU21623XXSP,2013-07-22 06:52:00,
2013-07-22 01:57:00,70.9,66.5,29.86,ESE,112,0.0,0.0,86,0.00,,,0.00,WUHU21623XXSP,2013-07-22 06:57:00,
2013-07-22 02:02:00,70.7,66.3,29.87,ESE,112,0.0,0.0,86,0.00,,,0.00,WUHU21623XXSP,2013-07-22 07:02:00,
2013-07-22 02:07:00,70.7,66.3,29.87,ESE,112,0.0,0.0,86,0.00,,,0.00,WUHU21623XXSP,2013-07-22 07:07:00,
2013-07-22 02:12:00,70.7,66.3,29.87,ESE,112,0.0,0.0,86,0.00,,,0.00,WUHU21623XXSP,2013-07-22 07:12:00,
2013-07-22 02:17:00,70.5,66.1,29.87,ESE,112,0.0,0.0,86,0.00,,,0.00,WUHU21623XXSP,2013-07-22 07:17:00,
2013-07-22 02:22:00,70.5,66.1,29.87,ESE,112,0.0,0.0,86,0.00,,,0.00,WUHU21623XXSP,2013-07-22 07:22:00,
2013-07-22 02:27:00,70.5,66.1,29.86,ESE,112,0.0,0.0,86,0.00,,,0.00,WUHU21623XXSP,2013-07-22 07:27:00,
2013-07-22 02:32:00,70.5,65.8,29.86,ESE,112,0.0,0.0,85,0.00,,,0.00,WUHU21623XXSP,2013-07-22 07:32:00,
2013-07-22 02:37:00,70.3,65.8,29.86,ESE,112,0.0,0.0,85,0.00,,,0.00,WUHU21623XXSP,2013-07-22 07:37:00,
2013-07-22 02:42:00,70.3,65.6,29.86,ESE,112,0.0,0.0,85,0.00,,,0.00,WUHU21623XXSP,2013-07-22 07:42:00,
2013-07-22 02:47:00,70.3,65.6,29.85,ESE,112,0.0,0.0,85,0.00,,,0.00,WUHU21623XXSP,2013-07-22 07:47:00,
2013-07-22 02:52:00,70.3,65.2,29.85,ESE,112,0.0,0.0,84,0.00,,,0.00,WUHU21623XXSP,2013-07-22 07:52:00,
2013-07-22 02:57:00,70.3,65.2,29.85,SE,135,0.0,0.0,84,0.00,,,0.00,WUHU21623XXSP,2013-07-22 07:57:00,
2013-07-22 03:02:00,70.3,65.2,29.85,SE,135,0.0,0.0,84,0.00,,,0.00,WUHU21623XXSP,2013-07-22 08:02:00,
2013-07-22 03:07:00,70.2,65.0,29.85,SE,135,0.0,0.0,84,0.00,,,0.00,WUHU21623XXSP,2013-07-22 08:07:00,
2013-07-22 03:12:00,70.2,65.0,29.84,SE,135,0.0,0.0,84,0.00,,,0.00,WUHU21623XXSP,2013-07-22 08:12:00,
2013-07-22 03:17:00,70.0,64.9,29.84,SE,135,0.0,0.0,84,0.00,,,0.00,WUHU21623XXSP,2013-07-22 08:17:00,
2013-07-22 03:22:00,70.0,64.9,29.84,SE,135,0.0,0.0,84,0.00,,,0.00,WUHU21623XXSP,2013-07-22 08:22:00,
2013-07-22 03:27:00,69.8,64.7,29.83,SE,135,0.0,0.0,84,0.00,,,0.00,WUHU21623XXSP,2013-07-22 08:27:00,
2013-07-22 03:32:00,69.8,64.7,29.83,SE,135,0.0,0.0,84,0.00,,,0.00,WUHU21623XXSP,2013-07-22 08:32:00,
2013-07-22 03:37:00,69.8,64.7,29.83,SE,135,0.0,0.0,84,0.00,,,0.00,WUHU21623XXSP,2013-07-22 08:37:00,
2013-07-22 03:42:00,69.6,64.5,29.83,SE,135,0.0,0.0,84,0.00,,,0.00,WUHU21623XXSP,2013-07-22 08:42:00,
2013-07-22 03:47:00,69.6,64.5,29.83,SE,135,0.0,0.0,84,0.00,,,0.00,WUHU21623XXSP,2013-07-22 08:47:00,
2013-07-22 03:52:00,69.6,64.5,29.82,SE,135,0.0,0.0,84,0.00,,,0.00,WUHU21623XXSP,2013-07-22 08:52:00,
2013-07-22 03:57:00,69.6,64.5,29.82,SE,135,0.0,0.0,84,0.00,,,0.00,WUHU21623XXSP,2013-07-22 08:57:00,
2013-07-22 04:02:00,69.6,64.5,29.82,SE,135,0.0,0.0,84,0.00,,,0.00,WUHU21623XXSP,2013-07-22 09:02:00,
2013-07-22 04:07:00,69.6,64.5,29.82,SE,135,0.0,0.0,84,0.00,,,0.00,WUHU21623XXSP,2013-07-22 09:07:00,
2013-07-22 04:12:00,69.6,64.5,29.82,SE,135,0.0,0.9,84,0.00,,,0.00,WUHU21623XXSP,2013-07-22 09:12:00,
2013-07-22 04:17:00,69.6,64.5,29.81,SSE,157,0.0,0.9,84,0.00,,,0.00,WUHU21623XXSP,2013-07-22 09:17:00,
2013-07-22 04:22:00,69.6,64.5,29.81,SSE,157,0.0,0.7,84,0.00,,,0.00,WUHU21623XXSP,2013-07-22 09:22:00,
2013-07-22 04:27:00,69.6,64.8,29.82,SSE,157,0.0,0.0,85,0.00,,,0.00,WUHU21623XXSP,2013-07-22 09:27:00,
2013-07-22 04:32:00,69.6,64.8,29.82,SSE,157,0.0,0.0,85,0.00,,,0.00,WUHU21623XXSP,2013-07-22 09:32:00,
2013-07-22 04:37:00,69.6,65.2,29.82,SSE,157,0.0,0.0,86,0.00,,,0.00,WUHU21623XXSP,2013-07-22 09:37:00,
2013-07-22 04:42:00,69.4,65.0,29.82,SSE,157,0.0,0.0,86,0.00,,,0.00,WUHU21623XXSP,2013-07-22 09:42:00,
2013-07-22 04:47:00,69.4,65.0,29.82,SSE,157,0.0,0.0,86,0.00,,,0.00,WUHU21623XXSP,2013-07-22 09:47:00,
2013-07-22 04:52:00,69.4,65.0,29.82,SSE,157,0.0,0.0,86,0.00,,,0.00,WUHU21623XXSP,2013-07-22 09:52:00,
2013-07-22 04:57:00,69.3,64.8,29.83,SSE,157,0.0,0.0,86,0.00,,,0.00,WUHU21623XXSP,2013-07-22 09:57:00,
2013-07-22 05:02:00,69.3,64.8,29.83,SSE,157,0.0,0.0,86,0.00,,,0.00,WUHU21623XXSP,2013-07-22 10:02:00,
2013-07-22 05:08:00,69.1,64.7,29.83,SSE,157,0.0,0.0,86,0.00,,,0.00,WUHU21623XXSP,2013-07-22 10:08:00,
2013-07-22 05:13:00,69.1,64.7,29.83,SSE,157,0.0,0.0,86,0.00,,,0.00,WUHU21623XXSP,2013-07-22 10:13:00,
2013-07-22 05:18:00,69.1,65.0,29.83,SSE,157,0.0,0.0,87,0.00,,,0.00,WUHU21623XXSP,2013-07-22 10:18:00,
2013-07-22 05:23:00,69.1,65.0,29.84,SSE,157,0.0,0.0,87,0.00,,,0.00,WUHU21623XXSP,2013-07-22 10:23:00,
2013-07-22 05:28:00,69.1,65.0,29.84,SSE,157,0.0,0.0,87,0.00,,,0.00,WUHU21623XXSP,2013-07-22 10:28:00,
2013-07-22 05:33:00,69.1,65.0,29.84,SSE,157,0.0,0.0,87,0.00,,,0.00,WUHU21623XXSP,2013-07-22 10:33:00,
2013-07-22 05:38:00,69.1,65.0,29.84,SSE,157,0.0,0.0,87,0.00,,,0.00,WUHU21623XXSP,2013-07-22 10:38:00,
2013-07-22 05:43:00,69.1,65.0,29.84,SE,135,0.0,0.0,87,0.00,,,0.00,WUHU21623XXSP,2013-07-22 10:43:00,
2013-07-22 05:48:00,68.7,64.7,29.84,SE,135,0.0,0.0,87,0.00,,,0.00,WUHU21623XXSP,2013-07-22 10:48:00,
2013-07-22 05:53:00,68.7,64.7,29.84,SE,135,0.0,0.0,87,0.00,,,0.00,WUHU21623XXSP,2013-07-22 10:53:00,
2013-07-22 05:58:00,68.7,64.7,29.84,SE,135,0.0,0.0,87,0.00,,,0.00,WUHU21623XXSP,2013-07-22 10:58:00,
2013-07-22 06:03:00,68.7,65.0,29.84,SE,135,0.0,0.0,88,0.00,,,0.00,WUHU21623XXSP,2013-07-22 11:03:00,
2013-07-22 06:08:00,68.7,65.0,29.85,SE,135,0.0,0.0,88,0.00,,,0.00,WUHU21623XXSP,2013-07-22 11:08:00,
2013-07-22 06:13:00,68.5,64.8,29.84,SE,135,0.0,0.0,88,0.00,,,0.00,WUHU21623XXSP,2013-07-22 11:13:00,
2013-07-22 06:18:00,68.5,64.8,29.84,SE,135,0.0,0.0,88,0.00,,,0.00,WUHU21623XXSP,2013-07-22 11:18:00,
2013-07-22 06:23:00,68.2,64.5,29.84,SE,135,0.0,0.0,88,0.00,,,0.00,WUHU21623XXSP,2013-07-22 11:23:00,
2013-07-22 06:28:00,68.2,64.5,29.84,SE,135,0.0,0.0,88,0.00,,,0.00,WUHU21623XXSP,2013-07-22 11:28:00,
2013-07-22 06:33:00,68.2,64.5,29.84,SE,135,0.0,0.0,88,0.00,,,0.00,WUHU21623XXSP,2013-07-22 11:33:00,
2013-07-22 06:38:00,68.2,64.5,29.84,SE,135,0.0,0.0,88,0.00,,,0.00,WUHU21623XXSP,2013-07-22 11:38:00,
2013-07-22 06:43:00,68.2,64.5,29.84,SE,135,0.0,0.0,88,0.00,,,0.00,WUHU21623XXSP,2013-07-22 11:43:00,
2013-07-22 06:48:00,68.2,64.5,29.85,SE,135,0.0,0.0,88,0.00,,,0.00,WUHU21623XXSP,2013-07-22 11:48:00,
2013-07-22 06:53:00,68.2,64.5,29.85,SE,135,0.0,0.0,88,0.00,,,0.00,WUHU21623XXSP,2013-07-22 11:53:00,
2013-07-22 06:58:00,68.2,64.5,29.85,SE,135,0.0,0.0,88,0.00,,,0.00,WUHU21623XXSP,2013-07-22 11:58:00,
2013-07-22 07:03:00,68.4,64.1,29.85,SE,135,0.0,0.0,87,0.00,,,0.00,WUHU21623XXSP,2013-07-22 12:03:00,
2013-07-22 07:08:00,68.7,64.3,29.85,SE,135,0.0,0.0,87,0.00,,,0.00,WUHU21623XXSP,2013-07-22 12:08:00,
2013-07-22 07:13:00,69.1,64.7,29.86,SE,135,0.0,0.0,87,0.00,,,0.00,WUHU21623XXSP,2013-07-22 12:13:00,
2013-07-22 07:18:00,69.4,65.0,29.86,SE,135,0.0,0.0,86,0.00,,,0.00,WUHU21623XXSP,2013-07-22 12:18:00,
2013-07-22 07:23:00,70.7,66.3,29.85,SE,135,0.0,0.0,86,0.00,,,0.00,WUHU21623XXSP,2013-07-22 12:23:00,
2013-07-22 07:28:00,71.4,66.8,29.85,SE,135,0.0,0.0,86,0.00,,,0.00,WUHU21623XXSP,2013-07-22 12:28:00,
2013-07-22 07:33:00,72.0,67.9,29.85,SE,135,0.0,0.0,87,0.00,,,0.00,WUHU21623XXSP,2013-07-22 12:33:00,
2013-07-22 07:38:00,72.9,68.6,29.85,SE,135,0.0,0.0,88,0.00,,,0.00,WUHU21623XXSP,2013-07-22 12:38:00,
2013-07-22 07:43:00,73.2,69.1,29.85,SE,135,0.0,0.0,87,0.00,,,0.00,WUHU21623XXSP,2013-07-22 12:43:00,
2013-07-22 07:48:00,73.9,69.3,29.85,SE,135,0.0,0.0,86,0.00,,,0.00,WUHU21623XXSP,2013-07-22 12:48:00,
2013-07-22 07:53:00,74.3,69.5,29.85,SE,135,0.0,0.0,85,0.00,,,0.00,WUHU21623XXSP,2013-07-22 12:53:00,
2013-07-22 07:58:00,74.3,69.5,29.85,SE,135,0.0,0.0,85,0.00,,,0.00,WUHU21623XXSP,2013-07-22 12:58:00,
2013-07-22 08:03:00,74.1,69.0,29.85,SE,135,0.0,0.0,84,0.00,,,0.00,WUHU21623XXSP,2013-07-22 13:03:00,
2013-07-22 08:08:00,74.1,69.0,29.85,SE,135,0.0,0.0,84,0.00,,,0.00,WUHU21623XXSP,2013-07-22 13:08:00,
2013-07-22 08:13:00,74.1,69.3,29.85,SE,135,1.8,1.8,85,0.00,,,0.00,WUHU21623XXSP,2013-07-22 13:13:00,
2013-07-22 08:18:00,74.8,69.7,29.85,SE,135,0.0,1.8,84,0.00,,,0.00,WUHU21623XXSP,2013-07-22 13:18:00,
2013-07-22 08:23:00,75.4,70.3,29.85,SE,135,0.0,1.1,84,0.00,,,0.00,WUHU21623XXSP,2013-07-22 13:23:00,
2013-07-22 08:28:00,75.6,70.1,29.85,SE,135,0.0,1.1,83,0.00,,,0.00,WUHU21623XXSP,2013-07-22 13:28:00,
2013-07-22 08:33:00,76.3,70.4,29.85,SE,135,0.0,2.7,82,0.00,,,0.00,WUHU21623XXSP,2013-07-22 13:33:00,
2013-07-22 08:38:00,76.5,70.4,29.85,SSE,157,0.0,2.7,82,0.00,,,0.00,WUHU21623XXSP,2013-07-22 13:38:00,
2013-07-22 08:43:00,76.8,70.5,29.85,SSE,157,8.3,8.3,81,0.00,,,0.00,WUHU21623XXSP,2013-07-22 13:43:00,
2013-07-22 08:48:00,77.4,70.7,29.86,SSE,157,0.0,8.3,80,0.00,,,0.00,WUHU21623XXSP,2013-07-22 13:48:00,
2013-07-22 08:53:00,77.5,70.5,29.85,SSE,157,0.0,0.0,79,0.00,,,0.00,WUHU21623XXSP,2013-07-22 13:53:00,
2013-07-22 08:58:00,77.5,70.1,29.85,SSE,157,0.0,0.0,78,0.00,,,0.00,WUHU21623XXSP,2013-07-22 13:58:00,
2013-07-22 09:03:00,78.1,70.6,29.85,SSE,157,0.0,0.0,78,0.00,,,0.00,WUHU21623XXSP,2013-07-22 14:03:00,
2013-07-22 09:08:00,78.6,71.0,29.86,SSE,157,0.0,0.0,77,0.00,,,0.00,WUHU21623XXSP,2013-07-22 14:08:00,
2013-07-22 09:13:00,78.6,70.4,29.85,SSE,157,0.0,0.0,76,0.00,,,0.00,WUHU21623XXSP,2013-07-22 14:13:00,
2013-07-22 09:18:00,79.2,70.9,29.85,SSE,157,0.0,0.0,75,0.00,,,0.00,WUHU21623XXSP,2013-07-22 14:18:00,
2013-07-22 09:23:00,79.5,70.1,29.85,SSE,157,0.0,0.0,73,0.00,,,0.00,WUHU21623XXSP,2013-07-22 14:23:00,
2013-07-22 09:28:00,79.9,70.3,29.85,SSE,157,0.0,0.0,73,0.00,,,0.00,WUHU21623XXSP,2013-07-22 14:28:00,
2013-07-22 09:33:00,80.1,70.2,29.85,South,180,0.0,0.0,72,0.00,,,0.00,WUHU21623XXSP,2013-07-22 14:33:00,
2013-07-22 09:39:00,80.4,70.2,29.85,South,180,0.0,0.0,71,0.00,,,0.00,WUHU21623XXSP,2013-07-22 14:39:00,
2013-07-22 09:44:00,80.1,69.8,29.85,South,180,0.0,0.0,71,0.00,,,0.00,WUHU21623XXSP,2013-07-22 14:44:00,
2013-07-22 09:49:00,79.5,69.7,29.85,South,180,0.0,1.8,72,0.00,,,0.00,WUHU21623XXSP,2013-07-22 14:49:00,
2013-07-22 09:54:00,79.3,69.5,29.85,South,180,0.0,1.8,72,0.00,,,0.00,WUHU21623XXSP,2013-07-22 14:54:00,
2013-07-22 09:59:00,79.3,69.5,29.85,South,180,0.0,0.0,72,0.00,,,0.00,WUHU21623XXSP,2013-07-22 14:59:00,
2013-07-22 10:04:00,80.1,70.2,29.85,South,180,0.0,0.0,72,0.00,,,0.00,WUHU21623XXSP,2013-07-22 15:04:00,
2013-07-22 10:09:00,80.8,70.1,29.85,SSE,157,0.0,0.0,70,0.00,,,0.00,WUHU21623XXSP,2013-07-22 15:09:00,
2013-07-22 10:14:00,81.1,70.3,29.85,SSE,157,0.0,0.0,70,0.00,,,0.00,WUHU21623XXSP,2013-07-22 15:14:00,
2013-07-22 10:19:00,81.3,70.2,29.85,SSE,157,0.0,4.9,69,0.00,,,0.00,WUHU21623XXSP,2013-07-22 15:19:00,
2013-07-22 10:24:00,81.7,70.5,29.85,SSE,157,0.0,4.9,69,0.00,,,0.00,WUHU21623XXSP,2013-07-22 15:24:00,
2013-07-22 10:29:00,81.7,70.1,29.85,SSE,157,0.0,0.0,68,0.00,,,0.00,WUHU21623XXSP,2013-07-22 15:29:00,
2013-07-22 10:34:00,81.3,70.2,29.85,SE,135,0.0,0.0,69,0.00,,,0.00,WUHU21623XXSP,2013-07-22 15:34:00,
2013-07-22 10:39:00,81.7,70.2,29.85,SE,135,0.0,0.0,68,0.00,,,0.00,WUHU21623XXSP,2013-07-22 15:39:00,
2013-07-22 10:44:00,82.0,70.4,29.85,South,180,0.0,0.0,68,0.00,,,0.00,WUHU21623XXSP,2013-07-22 15:44:00,
2013-07-22 10:49:00,81.1,69.6,29.85,South,180,0.0,0.0,68,0.00,,,0.00,WUHU21623XXSP,2013-07-22 15:49:00,
2013-07-22 10:54:00,80.8,69.2,29.85,SSE,157,0.0,0.0,68,0.00,,,0.00,WUHU21623XXSP,2013-07-22 15:54:00,
2013-07-22 10:59:00,80.4,68.9,29.84,SSE,157,0.0,0.0,68,0.00,,,0.00,WUHU21623XXSP,2013-07-22 15:59:00,
2013-07-22 11:04:00,80.4,68.9,29.85,SSE,157,0.0,0.0,68,0.00,,,0.00,WUHU21623XXSP,2013-07-22 16:04:00,
2013-07-22 11:09:00,81.1,70.0,29.84,SSE,157,0.0,0.0,69,0.00,,,0.00,WUHU21623XXSP,2013-07-22 16:09:00,
2013-07-22 11:14:00,81.7,69.6,29.84,SSE,157,6.5,6.5,67,0.00,,,0.00,WUHU21623XXSP,2013-07-22 16:14:00,
2013-07-22 11:19:00,82.2,69.9,29.84,SSE,157,0.0,6.5,67,0.00,,,0.00,WUHU21623XXSP,2013-07-22 16:19:00,
2013-07-22 11:24:00,82.2,69.2,29.84,SSE,157,0.0,0.0,65,0.00,,,0.00,WUHU21623XXSP,2013-07-22 16:24:00,
2013-07-22 11:29:00,82.2,69.5,29.84,SSE,157,3.1,4.7,66,0.00,,,0.00,WUHU21623XXSP,2013-07-22 16:29:00,
2013-07-22 11:34:00,82.0,69.0,29.84,SSE,157,0.0,4.7,65,0.00,,,0.00,WUHU21623XXSP,2013-07-22 16:34:00,
2013-07-22 11:39:00,82.9,69.9,29.84,SSE,157,0.0,3.1,65,0.00,,,0.00,WUHU21623XXSP,2013-07-22 16:39:00,
2013-07-22 11:44:00,84.0,69.4,29.85,SSE,157,0.0,0.0,62,0.00,,,0.00,WUHU21623XXSP,2013-07-22 16:44:00,
2013-07-22 11:49:00,84.0,69.6,29.85,SSE,157,0.0,0.9,62,0.00,,,0.00,WUHU21623XXSP,2013-07-22 16:49:00,
2013-07-22 11:54:00,84.4,70.1,29.85,SSE,157,0.0,0.9,63,0.00,,,0.00,WUHU21623XXSP,2013-07-22 16:54:00,
2013-07-22 11:59:00,84.7,70.3,29.85,SSE,157,0.0,0.0,62,0.00,,,0.00,WUHU21623XXSP,2013-07-22 16:59:00,
2013-07-22 12:04:00,85.5,70.5,29.85,South,180,0.0,0.0,61,0.00,,,0.00,WUHU21623XXSP,2013-07-22 17:04:00,
2013-07-22 12:09:00,85.6,70.0,29.85,South,180,3.4,3.4,61,0.00,,,0.00,WUHU21623XXSP,2013-07-22 17:09:00,
2013-07-22 12:14:00,85.8,70.4,29.85,SSE,157,0.0,3.4,60,0.00,,,0.00,WUHU21623XXSP,2013-07-22 17:14:00,
2013-07-22 12:19:00,85.5,70.0,29.84,SE,135,0.0,3.4,60,0.00,,,0.00,WUHU21623XXSP,2013-07-22 17:19:00,
2013-07-22 12:24:00,83.8,69.4,29.85,SE,135,4.0,4.0,62,0.00,,,0.00,WUHU21623XXSP,2013-07-22 17:24:00,
2013-07-22 12:29:00,84.0,70.1,29.84,SSE,157,4.0,6.9,63,0.00,,,0.00,WUHU21623XXSP,2013-07-22 17:29:00,
2013-07-22 12:34:00,84.9,70.4,29.84,SSE,157,0.0,6.9,62,0.00,,,0.00,WUHU21623XXSP,2013-07-22 17:34:00,
2013-07-22 12:39:00,85.3,70.2,29.84,SSE,157,0.0,0.0,61,0.00,,,0.00,WUHU21623XXSP,2013-07-22 17:39:00,
2013-07-22 12:44:00,85.8,70.3,29.84,South,180,3.6,3.6,61,0.00,,,0.00,WUHU21623XXSP,2013-07-22 17:44:00,
2013-07-22 12:49:00,86.2,71.0,29.84,South,180,0.0,3.6,61,0.00,,,0.00,WUHU21623XXSP,2013-07-22 17:49:00,
2013-07-22 12:54:00,86.5,70.5,29.84,South,180,0.0,5.4,59,0.00,,,0.00,WUHU21623XXSP,2013-07-22 17:54:00,
2013-07-22 12:59:00,86.7,70.2,29.84,West,270,0.0,5.4,58,0.00,,,0.00,WUHU21623XXSP,2013-07-22 17:59:00,
2013-07-22 13:04:00,86.7,69.6,29.83,WSW,247,0.0,0.0,57,0.00,,,0.00,WUHU21623XXSP,2013-07-22 18:04:00,
2013-07-22 13:10:00,86.9,68.8,29.83,WSW,247,0.0,0.0,55,0.00,,,0.00,WUHU21623XXSP,2013-07-22 18:10:00,
2013-07-22 13:15:00,86.2,68.6,29.83,WSW,247,0.0,0.0,56,0.00,,,0.00,WUHU21623XXSP,2013-07-22 18:15:00,
2013-07-22 13:20:00,86.0,69.0,29.83,WSW,247,0.0,0.0,57,0.00,,,0.00,WUHU21623XXSP,2013-07-22 18:20:00,
2013-07-22 13:25:00,86.5,70.0,29.83,WSW,247,0.0,0.0,58,0.00,,,0.00,WUHU21623XXSP,2013-07-22 18:25:00,
2013-07-22 13:30:00,87.6,69.4,29.83,WSW,247,0.0,0.0,55,0.00,,,0.00,WUHU21623XXSP,2013-07-22 18:30:00,
2013-07-22 13:36:00,87.6,69.2,29.82,WSW,247,0.0,0.0,53,0.00,,,0.00,WUHU21623XXSP,2013-07-22 18:36:00,
2013-07-22 13:41:00,87.6,69.4,29.82,SSW,202,0.0,0.0,55,0.00,,,0.00,WUHU21623XXSP,2013-07-22 18:41:00,
2013-07-22 13:46:00,88.3,69.8,29.82,SSW,202,0.0,0.0,55,0.00,,,0.00,WUHU21623XXSP,2013-07-22 18:46:00,
2013-07-22 13:51:00,88.3,69.0,29.82,SSE,157,0.0,4.0,53,0.00,,,0.00,WUHU21623XXSP,2013-07-22 18:51:00,
2013-07-22 13:56:00,88.7,69.2,29.81,SSE,157,0.0,4.0,53,0.00,,,0.00,WUHU21623XXSP,2013-07-22 18:56:00,
2013-07-22 14:01:00,88.7,70.1,29.81,SSE,157,0.0,0.0,54,0.00,,,0.00,WUHU21623XXSP,2013-07-22 19:01:00,
2013-07-22 14:06:00,88.3,68.5,29.81,SSE,157,0.0,0.0,53,0.00,,,0.00,WUHU21623XXSP,2013-07-22 19:06:00,
2013-07-22 14:11:00,88.9,69.2,29.81,SSE,157,0.0,0.0,53,0.00,,,0.00,WUHU21623XXSP,2013-07-22 19:11:00,
2013-07-22 14:17:00,86.7,67.8,29.81,SSE,157,0.0,0.0,52,0.00,,,0.00,WUHU21623XXSP,2013-07-22 19:17:00,
2013-07-22 14:22:00,86.5,67.4,29.80,SSE,157,0.0,0.0,53,0.00,,,0.00,WUHU21623XXSP,2013-07-22 19:22:00,
2013-07-22 14:27:00,87.1,67.9,29.80,WSW,247,0.0,0.0,53,0.00,,,0.00,WUHU21623XXSP,2013-07-22 19:27:00,
2013-07-22 14:32:00,87.4,67.7,29.80,WSW,247,0.0,0.0,52,0.00,,,0.00,WUHU21623XXSP,2013-07-22 19:32:00,
2013-07-22 14:37:00,87.8,68.0,29.80,SSE,157,0.0,0.0,52,0.00,,,0.00,WUHU21623XXSP,2013-07-22 19:37:00,
2013-07-22 14:42:00,86.7,67.7,29.81,SSE,157,0.0,0.0,53,0.00,,,0.00,WUHU21623XXSP,2013-07-22 19:42:00,
2013-07-22 14:47:00,86.5,68.1,29.81,WSW,247,0.0,0.0,54,0.00,,,0.00,WUHU21623XXSP,2013-07-22 19:47:00,
2013-07-22 14:52:00,87.1,68.9,29.80,SSE,157,0.0,0.0,55,0.00,,,0.00,WUHU21623XXSP,2013-07-22 19:52:00,
2013-07-22 14:58:00,87.6,68.9,29.80,WSW,247,0.0,1.6,54,0.00,,,0.00,WUHU21623XXSP,2013-07-22 19:58:00,
2013-07-22 15:03:00,88.3,69.6,29.80,SSE,157,0.0,1.6,54,0.00,,,0.00,WUHU21623XXSP,2013-07-22 20:03:00,
2013-07-22 15:08:00,88.3,69.0,29.80,SSE,157,0.0,0.0,53,0.00,,,0.00,WUHU21623XXSP,2013-07-22 20:08:00,
2013-07-22 15:13:00,88.5,69.2,29.80,WSW,247,0.0,0.0,53,0.00,,,0.00,WUHU21623XXSP,2013-07-22 20:13:00,
2013-07-22 15:17:00,88.5,69.3,29.80,SSE,157,0.0,0.0,53,0.00,,,0.00,WUHU21623XXSP,2013-07-22 20:17:00,
2013-07-22 15:22:00,88.3,69.0,29.80,SSE,157,0.0,0.0,54,0.00,,,0.00,WUHU21623XXSP,2013-07-22 20:22:00,
2013-07-22 15:27:00,87.6,68.9,29.80,SSE,157,0.0,0.0,54,0.00,,,0.00,WUHU21623XXSP,2013-07-22 20:27:00,
2013-07-22 15:32:00,87.4,69.3,29.80,SSE,157,0.0,0.0,55,0.00,,,0.00,WUHU21623XXSP,2013-07-22 20:32:00,
2013-07-22 15:37:00,86.7,68.6,29.80,SSE,157,0.0,0.0,55,0.00,,,0.00,WUHU21623XXSP,2013-07-22 20:37:00,
2013-07-22 15:42:00,86.5,68.6,29.79,SSE,157,0.0,0.0,55,0.00,,,0.00,WUHU21623XXSP,2013-07-22 20:42:00,
2013-07-22 15:43:00,86.5,68.6,29.79,SSE,157,0.0,0.0,55,0.00,,,0.00,WUHU21623XXSP,2013-07-22 20:43:00,
2013-07-22 15:48:00,85.8,67.7,29.79,SSE,157,0.0,0.0,55,0.00,,,0.00,WUHU21623XXSP,2013-07-22 20:48:00,
2013-07-22 15:53:00,85.8,68.3,29.79,SSE,157,0.0,0.0,56,0.00,,,0.00,WUHU21623XXSP,2013-07-22 20:53:00,
2013-07-22 15:58:00,85.8,68.3,29.79,SSE,157,0.0,0.0,57,0.00,,,0.00,WUHU21623XXSP,2013-07-22 20:58:00,
2013-07-22 16:03:00,86.2,68.6,29.79,SSE,157,0.0,0.0,56,0.00,,,0.00,WUHU21623XXSP,2013-07-22 21:03:00,
2013-07-22 16:08:00,86.4,68.8,29.79,WSW,247,0.0,1.6,56,0.00,,,0.00,WUHU21623XXSP,2013-07-22 21:08:00,
2013-07-22 16:13:00,86.9,69.3,29.79,WSW,247,0.0,1.6,56,0.00,,,0.00,WUHU21623XXSP,2013-07-22 21:13:00,
2013-07-22 16:18:00,88.2,69.9,29.79,SSE,157,0.0,0.0,55,0.00,,,0.00,WUHU21623XXSP,2013-07-22 21:18:00,
2013-07-22 16:23:00,88.5,69.7,29.79,SSE,157,0.0,0.0,53,0.00,,,0.00,WUHU21623XXSP,2013-07-22 21:23:00,
2013-07-22 16:28:00,88.9,69.2,29.79,WSW,247,0.0,0.0,53,0.00,,,0.00,WUHU21623XXSP,2013-07-22 21:28:00,
2013-07-22 16:33:00,90.1,70.3,29.79,WSW,247,0.0,0.0,53,0.00,,,0.00,WUHU21623XXSP,2013-07-22 21:33:00,
2013-07-22 16:39:00,90.1,70.6,29.79,WSW,247,2.2,2.2,53,0.00,,,0.00,WUHU21623XXSP,2013-07-22 21:39:00,
2013-07-22 16:44:00,91.0,70.6,29.79,WSW,247,5.1,5.1,52,0.00,,,0.00,WUHU21623XXSP,2013-07-22 21:44:00,
2013-07-22 16:49:00,91.2,70.9,29.79,WSW,247,0.0,5.1,52,0.00,,,0.00,WUHU21623XXSP,2013-07-22 21:49:00,
2013-07-22 16:54:00,91.2,71.1,29.78,WSW,247,0.0,0.0,52,0.00,,,0.00,WUHU21623XXSP,2013-07-22 21:54:00,
2013-07-22 16:59:00,90.7,70.9,29.78,WSW,247,0.0,0.0,52,0.00,,,0.00,WUHU21623XXSP,2013-07-22 21:59:00,
2013-07-22 17:04:00,90.9,70.8,29.78,WSW,247,0.0,0.0,52,0.00,,,0.00,WUHU21623XXSP,2013-07-22 22:04:00,
2013-07-22 17:09:00,90.9,70.8,29.78,WSW,247,0.0,4.3,52,0.00,,,0.00,WUHU21623XXSP,2013-07-22 22:09:00,
2013-07-22 17:14:00,91.0,70.9,29.79,WSW,247,3.6,4.3,52,0.00,,,0.00,WUHU21623XXSP,2013-07-22 22:14:00,
2013-07-22 17:19:00,90.7,70.9,29.78,WSW,247,0.0,3.6,52,0.00,,,0.00,WUHU21623XXSP,2013-07-22 22:19:00,
2013-07-22 17:24:00,90.5,70.4,29.78,WSW,247,0.0,3.6,52,0.00,,,0.00,WUHU21623XXSP,2013-07-22 22:24:00,
2013-07-22 17:29:00,90.3,70.8,29.78,WSW,247,2.7,3.4,53,0.00,,,0.00,WUHU21623XXSP,2013-07-22 22:29:00,
2013-07-22 17:34:00,90.0,70.5,29.78,WSW,247,1.8,2.7,53,0.00,,,0.00,WUHU21623XXSP,2013-07-22 22:34:00,
2013-07-22 17:39:00,89.2,70.4,29.78,SSW,202,2.5,2.5,54,0.00,,,0.00,WUHU21623XXSP,2013-07-22 22:39:00,
2013-07-22 17:44:00,88.0,69.6,29.78,South,180,0.0,3.8,54,0.00,,,0.00,WUHU21623XXSP,2013-07-22 22:44:00,
2013-07-22 17:49:00,87.6,69.4,29.78,SSW,202,0.0,3.8,55,0.00,,,0.00,WUHU21623XXSP,2013-07-22 22:49:00,
2013-07-22 17:54:00,87.3,69.1,29.78,SSW,202,0.0,0.0,56,0.00,,,0.00,WUHU21623XXSP,2013-07-22 22:54:00,
2013-07-22 17:59:00,86.7,69.6,29.77,South,180,0.0,0.0,57,0.00,,,0.00,WUHU21623XXSP,2013-07-22 22:59:00,
2013-07-22 18:04:00,86.9,69.8,29.77,SSW,202,0.0,0.0,57,0.00,,,0.00,WUHU21623XXSP,2013-07-22 23:04:00,
2013-07-22 18:09:00,86.9,69.8,29.77,South,180,6.7,6.7,57,0.00,,,0.00,WUHU21623XXSP,2013-07-22 23:09:00,
2013-07-22 18:14:00,87.1,70.0,29.77,WSW,247,6.0,6.7,57,0.00,,,0.00,WUHU21623XXSP,2013-07-22 23:14:00,
2013-07-22 18:19:00,88.0,70.5,29.77,WSW,247,0.0,6.7,57,0.00,,,0.00,WUHU21623XXSP,2013-07-22 23:19:00,
2013-07-22 18:24:00,88.3,70.1,29.77,WSW,247,0.0,6.0,55,0.00,,,0.00,WUHU21623XXSP,2013-07-22 23:24:00,
2013-07-22 18:29:00,88.5,69.7,29.77,West,270,0.0,0.0,54,0.00,,,0.00,WUHU21623XXSP,2013-07-22 23:29:00,
2013-07-22 18:34:00,88.3,69.6,29.77,WSW,247,0.0,0.0,54,0.00,,,0.00,WUHU21623XXSP,2013-07-22 23:34:00,
2013-07-22 18:39:00,87.8,69.1,29.77,WSW,247,0.0,0.0,54,0.00,,,0.00,WUHU21623XXSP,2013-07-22 23:39:00,
2013-07-22 18:44:00,87.6,68.9,29.77,WSW,247,0.0,0.0,54,0.00,,,0.00,WUHU21623XXSP,2013-07-22 23:44:00,
2013-07-22 18:49:00,87.3,68.6,29.76,West,270,4.7,4.7,54,0.00,,,0.00,WUHU21623XXSP,2013-07-22 23:49:00,
2013-07-22 18:54:00,86.9,68.4,29.77,WSW,247,0.0,4.7,54,0.00,,,0.00,WUHU21623XXSP,2013-07-22 23:54:00,
2013-07-22 18:59:00,86.7,68.6,29.77,WSW,247,0.0,0.0,55,0.00,,,0.00,WUHU21623XXSP,2013-07-22 23:59:00,
2013-07-22 19:04:00,86.5,68.4,29.77,WSW,247,0.0,4.7,55,0.00,,,0.00,WUHU21623XXSP,2013-07-23 00:04:00,
2013-07-22 19:09:00,86.2,68.1,29.77,WSW,247,0.0,4.7,56,0.00,,,0.00,WUHU21623XXSP,2013-07-23 00:09:00,
2013-07-22 19:14:00,85.8,68.3,29.77,WSW,247,0.0,0.0,56,0.00,,,0.00,WUHU21623XXSP,2013-07-23 00:14:00,
2013-07-22 19:19:00,85.6,68.6,29.77,WSW,247,0.0,0.0,57,0.00,,,0.00,WUHU21623XXSP,2013-07-23 00:19:00,
2013-07-22 19:24:00,85.5,68.5,29.77,WSW,247,0.0,0.0,57,0.00,,,0.00,WUHU21623XXSP,2013-07-23 00:24:00,
2013-07-22 19:29:00,85.3,68.3,29.77,West,270,0.0,0.0,57,0.00,,,0.00,WUHU21623XXSP,2013-07-23 00:29:00,
2013-07-22 19:34:00,84.9,68.5,29.77,West,270,0.0,0.0,58,0.00,,,0.00,WUHU21623XXSP,2013-07-23 00:34:00,
2013-07-22 19:39:00,84.6,68.2,29.77,WSW,247,0.0,0.0,58,0.00,,,0.00,WUHU21623XXSP,2013-07-23 00:39:00,
2013-07-22 19:44:00,84.2,68.0,29.78,WNW,292,0.0,0.0,58,0.00,,,0.00,WUHU21623XXSP,2013-07-23 00:44:00,
2013-07-22 19:49:00,84.0,67.7,29.77,West,270,0.0,0.0,58,0.00,,,0.00,WUHU21623XXSP,2013-07-23 00:49:00,
2013-07-22 19:54:00,83.3,67.1,29.77,WSW,247,0.0,0.0,59,0.00,,,0.00,WUHU21623XXSP,2013-07-23 00:54:00,
2013-07-22 19:59:00,82.9,67.1,29.78,WSW,247,0.0,0.0,59,0.00,,,0.00,WUHU21623XXSP,2013-07-23 00:59:00,
2013-07-22 20:05:00,82.8,67.5,29.78,WSW,247,0.0,0.0,60,0.00,,,0.00,WUHU21623XXSP,2013-07-23 01:05:00,
2013-07-22 20:10:00,82.2,66.9,29.78,WSW,247,0.0,0.0,60,0.00,,,0.00,WUHU21623XXSP,2013-07-23 01:10:00,
2013-07-22 20:15:00,82.0,66.9,29.78,WSW,247,0.0,0.0,60,0.00,,,0.00,WUHU21623XXSP,2013-07-23 01:15:00,
2013-07-22 20:20:00,81.7,67.2,29.78,WSW,247,0.0,0.0,61,0.00,,,0.00,WUHU21623XXSP,2013-07-23 01:20:00,
2013-07-22 20:25:00,81.5,67.2,29.78,WSW,247,0.0,0.0,62,0.00,,,0.00,WUHU21623XXSP,2013-07-23 01:25:00,
2013-07-22 20:30:00,81.3,67.0,29.78,WSW,247,0.0,0.0,62,0.00,,,0.00,WUHU21623XXSP,2013-07-23 01:30:00,
2013-07-22 20:35:00,81.1,67.3,29.78,WSW,247,0.0,0.0,63,0.00,,,0.00,WUHU21623XXSP,2013-07-23 01:35:00,
2013-07-22 20:40:00,80.8,67.6,29.78,WSW,247,0.0,0.0,64,0.00,,,0.00,WUHU21623XXSP,2013-07-23 01:40:00,
2013-07-22 20:45:00,80.8,67.4,29.78,WSW,247,0.0,0.0,64,0.00,,,0.00,WUHU21623XXSP,2013-07-23 01:45:00,
2013-07-22 20:50:00,80.4,67.6,29.78,WSW,247,0.0,0.0,65,0.00,,,0.00,WUHU21623XXSP,2013-07-23 01:50:00,
2013-07-22 20:55:00,80.4,67.6,29.78,WSW,247,0.0,0.0,65,0.00,,,0.00,WUHU21623XXSP,2013-07-23 01:55:00,
2013-07-22 21:00:00,80.1,67.7,29.78,WSW,247,0.0,0.0,66,0.00,,,0.00,WUHU21623XXSP,2013-07-23 02:00:00,
2013-07-22 21:05:00,79.7,67.3,29.78,WSW,247,0.0,0.0,66,0.00,,,0.00,WUHU21623XXSP,2013-07-23 02:05:00,
2013-07-22 21:10:00,79.5,67.6,29.79,WSW,247,0.0,0.0,67,0.00,,,0.00,WUHU21623XXSP,2013-07-23 02:10:00,
2013-07-22 21:15:00,79.3,67.4,29.78,WSW,247,0.0,0.0,67,0.00,,,0.00,WUHU21623XXSP,2013-07-23 02:15:00,
2013-07-22 21:20:00,79.2,67.7,29.78,WSW,247,0.0,0.0,68,0.00,,,0.00,WUHU21623XXSP,2013-07-23 02:20:00,
2013-07-22 21:25:00,79.0,67.5,29.78,WSW,247,0.0,0.0,68,0.00,,,0.00,WUHU21623XXSP,2013-07-23 02:25:00,
2013-07-22 21:30:00,78.8,67.7,29.78,WSW,247,0.0,0.0,69,0.00,,,0.00,WUHU21623XXSP,2013-07-23 02:30:00,
2013-07-22 21:35:00,78.6,67.6,29.79,WSW,247,0.0,0.0,69,0.00,,,0.00,WUHU21623XXSP,2013-07-23 02:35:00,
2013-07-22 21:40:00,78.6,67.6,29.78,WSW,247,0.0,0.0,69,0.00,,,0.00,WUHU21623XXSP,2013-07-23 02:40:00,
2013-07-22 21:45:00,78.6,68.0,29.78,WSW,247,0.0,0.0,70,0.00,,,0.00,WUHU21623XXSP,2013-07-23 02:45:00,
2013-07-22 21:50:00,78.4,67.9,29.78,WSW,247,0.0,0.0,70,0.00,,,0.00,WUHU21623XXSP,2013-07-23 02:50:00,
2013-07-22 21:55:00,78.3,67.7,29.78,WSW,247,0.0,0.0,70,0.00,,,0.00,WUHU21623XXSP,2013-07-23 02:55:00,
2013-07-22 22:00:00,78.1,67.5,29.78,WSW,247,0.0,0.0,70,0.00,,,0.00,WUHU21623XXSP,2013-07-23 03:00:00,
2013-07-22 22:05:00,77.9,67.5,29.78,WSW,247,0.0,0.0,70,0.00,,,0.00,WUHU21623XXSP,2013-07-23 03:05:00,
2013-07-22 22:10:00,77.9,68.1,29.78,WSW,247,0.0,0.0,72,0.00,,,0.00,WUHU21623XXSP,2013-07-23 03:10:00,
2013-07-22 22:15:00,77.7,68.0,29.78,WSW,247,0.0,0.0,72,0.00,,,0.00,WUHU21623XXSP,2013-07-23 03:15:00,
2013-07-22 22:20:00,77.7,68.0,29.78,WSW,247,0.0,0.0,73,0.00,,,0.00,WUHU21623XXSP,2013-07-23 03:20:00,
2013-07-22 22:25:00,77.5,68.2,29.78,WSW,247,0.0,0.0,73,0.00,,,0.00,WUHU21623XXSP,2013-07-23 03:25:00,
2013-07-22 22:30:00,77.5,68.2,29.78,WSW,247,0.0,0.0,73,0.00,,,0.00,WUHU21623XXSP,2013-07-23 03:30:00,
2013-07-22 22:35:00,77.5,68.6,29.79,WSW,247,0.0,0.0,74,0.00,,,0.00,WUHU21623XXSP,2013-07-23 03:35:00,
2013-07-22 22:40:00,77.5,68.6,29.78,WSW,247,0.0,0.0,74,0.00,,,0.00,WUHU21623XXSP,2013-07-23 03:40:00,
2013-07-22 22:45:00,77.4,68.4,29.79,WSW,247,0.0,0.0,74,0.00,,,0.00,WUHU21623XXSP,2013-07-23 03:45:00,
2013-07-22 22:50:00,77.2,68.6,29.79,WSW,247,0.0,0.0,75,0.00,,,0.00,WUHU21623XXSP,2013-07-23 03:50:00,
2013-07-22 22:55:00,77.2,68.6,29.80,WSW,247,0.0,0.0,75,0.00,,,0.00,WUHU21623XXSP,2013-07-23 03:55:00,
2013-07-22 23:00:00,77.0,68.8,29.80,WSW,247,0.0,0.0,76,0.00,,,0.00,WUHU21623XXSP,2013-07-23 04:00:00,
2013-07-22 23:01:00,77.0,68.8,29.80,WSW,247,0.0,0.0,76,0.00,,,0.00,WUHU21623XXSP,2013-07-23 04:01:00,
2013-07-22 23:06:00,76.8,68.6,29.80,SSW,202,0.0,0.0,76,0.00,,,0.00,WUHU21623XXSP,2013-07-23 04:06:00,
2013-07-22 23:11:00,76.8,69.0,29.81,SW,225,0.0,0.0,77,0.00,,,0.00,WUHU21623XXSP,2013-07-23 04:11:00,
2013-07-22 23:16:00,76.6,68.9,29.81,WSW,247,0.0,0.0,77,0.00,,,0.00,WUHU21623XXSP,2013-07-23 04:16:00,
2013-07-22 23:21:00,76.6,68.9,29.81,WSW,247,0.0,0.0,77,0.00,,,0.00,WUHU21623XXSP,2013-07-23 04:21:00,
2013-07-22 23:26:00,76.5,68.9,29.82,WSW,247,0.0,2.2,77,0.00,,,0.00,WUHU21623XXSP,2013-07-23 04:26:00,
2013-07-22 23:31:00,76.5,69.1,29.82,WSW,247,0.0,2.2,78,0.00,,,0.00,WUHU21623XXSP,2013-07-23 04:31:00,
2013-07-22 23:36:00,76.3,68.9,29.82,SSW,202,0.0,0.0,78,0.00,,,0.00,WUHU21623XXSP,2013-07-23 04:36:00,
2013-07-22 23:42:00,76.3,69.3,29.81,WSW,247,0.0,0.0,79,0.00,,,0.00,WUHU21623XXSP,2013-07-23 04:42:00,
2013-07-22 23:47:00,76.1,69.1,29.82,SSW,202,2.9,2.9,79,0.00,,,0.00,WUHU21623XXSP,2013-07-23 04:47:00,
2013-07-22 23:52:00,76.1,69.1,29.81,WSW,247,0.0,2.9,79,0.00,,,0.00,WUHU21623XXSP,2013-07-23 04:52:00,
2013-07-22 23:57:00,75.9,69.0,29.81,WSW,247,0.0,0.0,79,0.00,,,0.00,WUHU21623XXSP,2013-07-23 04:57:00,